Time,TemperatureF,DewpointF,PressureIn,WindDirection,WindDirectionDegrees,WindSpeedMPH,WindSpeedGustMPH,Humidity,HourlyPrecipIn,Conditions,Clouds,dailyrainin,SoftwareType,DateUTC
2013-03-04 00:01:00,49.4,45.1,30.12,SW,232,0.0,0.0,85,0.00,,,0.00,WeatherDisplay:10.37,2013-03-04 08:01:00,
2013-03-04 00:06:00,49.4,45.1,30.12,SW,231,1.2,1.2,85,0.00,,,0.00,WeatherDisplay:10.37,2013-03-04 08:06:00,
2013-03-04 00:11:00,49.5,45.2,30.12,SW,232,0.0,0.0,85,0.00,,,0.00,WeatherDisplay:10.37,2013-03-04 08:11:00,
2013-03-04 00:16:00,49.4,45.1,30.11,SW,232,0.0,0.0,85,0.00,,,0.00,WeatherDisplay:10.37,2013-03-04 08:16:00,
2013-03-04 00:21:00,49.4,45.1,30.11,SW,232,0.0,0.0,85,0.00,,,0.00,WeatherDisplay:10.37,2013-03-04 08:21:00,
2013-03-04 00:26:00,49.3,45.0,30.11,SW,232,0.0,0.0,85,0.00,,,0.00,WeatherDisplay:10.37,2013-03-04 08:26:00,
2013-03-04 00:31:00,49.3,45.0,30.11,SW,232,1.2,0.0,85,0.00,,,0.00,WeatherDisplay:10.37,2013-03-04 08:31:00,
2013-03-04 00:36:00,49.1,44.8,30.11,SW,232,0.0,0.0,85,0.00,,,0.00,WeatherDisplay:10.37,2013-03-04 08:36:00,
2013-03-04 00:41:00,48.9,44.6,30.11,SW,232,0.0,0.0,85,0.00,,,0.00,WeatherDisplay:10.37,2013-03-04 08:41:00,
2013-03-04 00:46:00,48.7,44.4,30.11,SW,232,0.0,0.0,85,0.00,,,0.00,WeatherDisplay:10.37,2013-03-04 08:46:00,
2013-03-04 00:51:00,48.5,44.5,30.11,SW,232,0.0,0.0,86,0.00,,,0.00,WeatherDisplay:10.37,2013-03-04 08:51:00,
2013-03-04 00:56:00,48.5,44.5,30.11,SW,232,0.0,0.1,86,0.00,,,0.00,WeatherDisplay:10.37,2013-03-04 08:56:00,
2013-03-04 01:01:00,48.5,44.8,30.10,SSE,155,0.0,0.0,87,0.00,,,0.00,WeatherDisplay:10.37,2013-03-04 09:01:00,
2013-03-04 01:06:00,48.5,44.8,30.11,SSE,155,0.0,0.0,87,0.00,,,0.00,WeatherDisplay:10.37,2013-03-04 09:06:00,
2013-03-04 01:11:00,48.7,45.0,30.11,WNW,302,1.2,1.2,87,0.00,,,0.00,WeatherDisplay:10.37,2013-03-04 09:11:00,
2013-03-04 01:16:00,48.8,45.1,30.12,WSW,238,1.0,1.0,87,0.00,,,0.00,WeatherDisplay:10.37,2013-03-04 09:16:00,
2013-03-04 01:21:00,48.9,45.2,30.11,WSW,240,1.2,1.2,87,0.00,,,0.00,WeatherDisplay:10.37,2013-03-04 09:21:00,
2013-03-04 01:26:00,48.9,45.2,30.12,WSW,240,0.0,0.0,87,0.00,,,0.00,WeatherDisplay:10.37,2013-03-04 09:26:00,
2013-03-04 01:31:00,49.0,45.3,30.12,WNW,287,2.3,2.3,87,0.00,,,0.00,WeatherDisplay:10.37,2013-03-04 09:31:00,
2013-03-04 01:36:00,49.1,45.1,30.12,WNW,287,0.0,0.0,86,0.00,,,0.00,WeatherDisplay:10.37,2013-03-04 09:36:00,
2013-03-04 01:41:00,49.2,45.2,30.12,WNW,287,1.2,0.0,86,0.00,,,0.00,WeatherDisplay:10.37,2013-03-04 09:41:00,
2013-03-04 01:46:00,49.2,45.2,30.12,West,277,3.5,3.5,86,0.00,,,0.00,WeatherDisplay:10.37,2013-03-04 09:46:00,
2013-03-04 01:51:00,49.3,45.3,30.12,WNW,288,4.6,4.6,86,0.00,,,0.00,WeatherDisplay:10.37,2013-03-04 09:51:00,
2013-03-04 01:56:00,49.2,45.2,30.13,WNW,295,1.0,1.0,86,0.00,,,0.00,WeatherDisplay:10.37,2013-03-04 09:56:00,
2013-03-04 02:01:00,49.3,45.3,30.12,WSW,257,0.0,0.5,86,0.00,,,0.00,WeatherDisplay:10.37,2013-03-04 10:01:00,
2013-03-04 02:06:00,49.3,45.3,30.12,West,279,0.0,0.0,86,0.00,,,0.00,WeatherDisplay:10.37,2013-03-04 10:06:00,
2013-03-04 02:11:00,49.3,45.3,30.12,West,281,0.0,0.4,86,0.00,,,0.00,WeatherDisplay:10.37,2013-03-04 10:11:00,
2013-03-04 02:16:00,49.3,45.3,30.12,WNW,287,0.0,0.0,86,0.00,,,0.00,WeatherDisplay:10.37,2013-03-04 10:16:00,
2013-03-04 02:21:00,49.3,45.3,30.12,West,264,0.0,0.0,86,0.00,,,0.00,WeatherDisplay:10.37,2013-03-04 10:21:00,
2013-03-04 02:26:00,49.4,45.4,30.12,West,262,0.0,0.0,86,0.00,,,0.00,WeatherDisplay:10.37,2013-03-04 10:26:00,
2013-03-04 02:31:00,49.3,45.3,30.12,West,264,0.0,0.0,86,0.00,,,0.00,WeatherDisplay:10.37,2013-03-04 10:31:00,
2013-03-04 02:36:00,49.3,45.3,30.12,WNW,288,0.0,0.0,86,0.00,,,0.00,WeatherDisplay:10.37,2013-03-04 10:36:00,
2013-03-04 02:41:00,49.3,45.3,30.12,West,264,0.0,0.0,86,0.00,,,0.00,WeatherDisplay:10.37,2013-03-04 10:41:00,
2013-03-04 02:46:00,49.3,45.3,30.12,West,264,0.0,0.0,86,0.00,,,0.00,WeatherDisplay:10.37,2013-03-04 10:46:00,
2013-03-04 02:51:00,49.3,45.3,30.12,WSW,238,1.2,1.2,86,0.00,,,0.00,WeatherDisplay:10.37,2013-03-04 10:51:00,
2013-03-04 02:56:00,49.2,45.2,30.12,WSW,239,1.2,1.2,86,0.00,,,0.00,WeatherDisplay:10.37,2013-03-04 10:56:00,
2013-03-04 03:01:00,49.2,45.2,30.12,WSW,249,1.2,1.2,86,0.00,,,0.00,WeatherDisplay:10.37,2013-03-04 11:01:00,
2013-03-04 03:06:00,49.2,45.2,30.12,WSW,239,0.0,0.2,86,0.00,,,0.00,WeatherDisplay:10.37,2013-03-04 11:06:00,
2013-03-04 03:11:00,49.1,45.1,30.12,West,269,2.3,2.3,86,0.00,,,0.00,WeatherDisplay:10.37,2013-03-04 11:11:00,
2013-03-04 03:16:00,49.2,45.2,30.12,SW,233,2.3,2.3,86,0.00,,,0.00,WeatherDisplay:10.37,2013-03-04 11:16:00,
2013-03-04 03:21:00,49.2,45.2,30.12,WSW,240,3.5,3.5,86,0.00,,,0.00,WeatherDisplay:10.37,2013-03-04 11:21:00,
2013-03-04 03:26:00,49.2,45.2,30.13,WSW,252,2.3,2.3,86,0.00,,,0.00,WeatherDisplay:10.37,2013-03-04 11:26:00,
2013-03-04 03:31:00,49.2,45.2,30.13,SW,235,2.3,2.3,86,0.00,,,0.00,WeatherDisplay:10.37,2013-03-04 11:31:00,
2013-03-04 03:36:00,49.2,45.2,30.12,WNW,302,4.0,4.0,86,0.00,,,0.00,WeatherDisplay:10.37,2013-03-04 11:36:00,
2013-03-04 03:41:00,49.1,45.1,30.12,West,278,2.3,2.3,86,0.00,,,0.00,WeatherDisplay:10.37,2013-03-04 11:41:00,
2013-03-04 03:46:00,49.2,45.2,30.13,West,273,2.3,2.3,86,0.00,,,0.00,WeatherDisplay:10.37,2013-03-04 11:46:00,
2013-03-04 03:51:00,49.2,45.2,30.12,WNW,302,2.3,2.3,86,0.00,,,0.00,WeatherDisplay:10.37,2013-03-04 11:51:00,
2013-03-04 03:56:00,49.2,45.2,30.12,SW,228,1.2,1.2,86,0.00,,,0.00,WeatherDisplay:10.37,2013-03-04 11:56:00,
2013-03-04 04:01:00,49.1,45.1,30.12,WSW,246,1.2,1.2,86,0.00,,,0.00,WeatherDisplay:10.37,2013-03-04 12:01:00,
2013-03-04 04:06:00,49.0,45.0,30.12,West,259,1.2,0.0,86,0.00,,,0.00,WeatherDisplay:10.37,2013-03-04 12:06:00,
2013-03-04 04:11:00,49.0,45.0,30.12,WNW,296,1.2,0.0,86,0.00,,,0.00,WeatherDisplay:10.37,2013-03-04 12:11:00,
2013-03-04 04:16:00,49.0,45.0,30.12,WSW,243,1.2,0.0,86,0.00,,,0.00,WeatherDisplay:10.37,2013-03-04 12:16:00,
2013-03-04 04:21:00,48.9,45.2,30.12,West,259,0.0,0.0,87,0.00,,,0.00,WeatherDisplay:10.37,2013-03-04 12:21:00,
2013-03-04 04:26:00,48.9,45.2,30.12,West,281,0.0,0.0,87,0.00,,,0.00,WeatherDisplay:10.37,2013-03-04 12:26:00,
2013-03-04 04:31:00,48.9,44.9,30.12,West,281,0.0,0.0,86,0.00,,,0.00,WeatherDisplay:10.37,2013-03-04 12:31:00,
2013-03-04 04:36:00,48.9,44.9,30.12,WSW,245,1.2,1.2,86,0.00,,,0.00,WeatherDisplay:10.37,2013-03-04 12:36:00,
2013-03-04 04:41:00,48.8,44.8,30.13,WSW,250,1.2,1.2,86,0.00,,,0.00,WeatherDisplay:10.37,2013-03-04 12:41:00,
2013-03-04 04:46:00,48.8,44.8,30.13,WSW,250,0.0,0.0,86,0.00,,,0.00,WeatherDisplay:10.37,2013-03-04 12:46:00,
2013-03-04 04:51:00,48.8,44.8,30.13,WSW,250,0.0,0.0,86,0.00,,,0.00,WeatherDisplay:10.37,2013-03-04 12:51:00,
2013-03-04 04:56:00,48.8,44.8,30.13,WSW,250,0.0,0.0,86,0.00,,,0.00,WeatherDisplay:10.37,2013-03-04 12:56:00,
2013-03-04 05:01:00,48.8,44.8,30.13,WSW,245,0.0,0.0,86,0.00,,,0.00,WeatherDisplay:10.37,2013-03-04 13:01:00,
2013-03-04 05:06:00,48.8,44.8,30.14,SW,234,0.0,0.0,86,0.00,,,0.00,WeatherDisplay:10.37,2013-03-04 13:06:00,
2013-03-04 05:11:00,48.8,44.8,30.14,SW,233,0.0,0.0,86,0.00,,,0.00,WeatherDisplay:10.37,2013-03-04 13:11:00,
2013-03-04 05:16:00,48.8,44.8,30.14,SW,233,0.0,0.0,86,0.00,,,0.00,WeatherDisplay:10.37,2013-03-04 13:16:00,
2013-03-04 05:21:00,48.7,44.7,30.14,SW,233,0.0,0.0,86,0.00,,,0.00,WeatherDisplay:10.37,2013-03-04 13:21:00,
2013-03-04 05:26:00,48.7,44.7,30.14,SW,233,0.0,0.0,86,0.00,,,0.00,WeatherDisplay:10.37,2013-03-04 13:26:00,
2013-03-04 05:31:00,48.7,44.7,30.14,SW,233,0.0,0.0,86,0.00,,,0.00,WeatherDisplay:10.37,2013-03-04 13:31:00,
2013-03-04 05:36:00,48.6,44.6,30.14,SW,233,0.0,0.0,86,0.00,,,0.00,WeatherDisplay:10.37,2013-03-04 13:36:00,
2013-03-04 05:41:00,48.6,44.6,30.14,SW,233,0.0,0.0,86,0.00,,,0.00,WeatherDisplay:10.37,2013-03-04 13:41:00,
2013-03-04 05:46:00,48.5,44.5,30.14,SW,233,0.0,0.0,86,0.00,,,0.00,WeatherDisplay:10.37,2013-03-04 13:46:00,
2013-03-04 05:51:00,48.6,44.6,30.14,SW,233,0.0,0.0,86,0.00,,,0.00,WeatherDisplay:10.37,2013-03-04 13:51:00,
2013-03-04 05:56:00,48.5,44.5,30.14,SW,235,0.0,0.0,86,0.00,,,0.00,WeatherDisplay:10.37,2013-03-04 13:56:00,
2013-03-04 06:01:00,48.6,44.6,30.13,SW,233,0.0,0.0,86,0.00,,,0.00,WeatherDisplay:10.37,2013-03-04 14:01:00,
2013-03-04 06:06:00,48.6,44.6,30.13,SW,235,0.0,0.0,86,0.00,CLR,,0.00,WeatherDisplay:10.37,2013-03-04 14:06:00,
2013-03-04 06:11:00,48.6,44.6,30.13,SW,235,0.0,0.0,86,0.00,CLR,,0.00,WeatherDisplay:10.37,2013-03-04 14:11:00,
2013-03-04 06:16:00,48.6,44.6,30.13,SW,233,0.0,0.0,86,0.00,CLR,,0.00,WeatherDisplay:10.37,2013-03-04 14:16:00,
2013-03-04 06:21:00,48.6,44.6,30.14,WSW,245,0.0,0.2,86,0.00,CLR,,0.00,WeatherDisplay:10.37,2013-03-04 14:21:00,
2013-03-04 06:26:00,48.6,44.6,30.13,WSW,250,0.0,0.0,86,0.00,CLR,,0.00,WeatherDisplay:10.37,2013-03-04 14:26:00,
2013-03-04 06:31:00,48.6,44.3,30.14,WSW,239,1.2,1.2,85,0.00,CLR,,0.00,WeatherDisplay:10.37,2013-03-04 14:31:00,
2013-03-04 06:36:00,48.5,44.2,30.14,WSW,240,1.0,1.0,85,0.00,CLR,,0.00,WeatherDisplay:10.37,2013-03-04 14:36:00,
2013-03-04 06:41:00,48.5,44.2,30.14,WNW,303,0.0,0.7,85,0.00,CLR,,0.00,WeatherDisplay:10.37,2013-03-04 14:41:00,
2013-03-04 06:46:00,48.5,44.2,30.14,WNW,302,0.0,0.0,85,0.00,CLR,,0.00,WeatherDisplay:10.37,2013-03-04 14:46:00,
2013-03-04 06:51:00,48.6,44.3,30.14,WSW,250,0.0,0.2,85,0.00,CLR,,0.00,WeatherDisplay:10.37,2013-03-04 14:51:00,
2013-03-04 06:56:00,48.6,44.3,30.14,WSW,239,1.2,1.2,85,0.00,CLR,,0.00,WeatherDisplay:10.37,2013-03-04 14:56:00,
2013-03-04 07:01:00,48.6,44.3,30.14,WSW,238,1.2,0.0,85,0.00,CLR,,0.00,WeatherDisplay:10.37,2013-03-04 15:01:00,
2013-03-04 07:06:00,48.6,44.3,30.14,WSW,239,1.0,1.0,85,0.00,CLR,,0.00,WeatherDisplay:10.37,2013-03-04 15:06:00,
2013-03-04 07:11:00,48.7,44.7,30.15,WSW,247,1.2,1.2,86,0.00,CLR,,0.00,WeatherDisplay:10.37,2013-03-04 15:11:00,
2013-03-04 07:16:00,48.8,44.5,30.15,WSW,246,1.2,1.2,85,0.00,CLR,,0.00,WeatherDisplay:10.37,2013-03-04 15:16:00,
2013-03-04 07:21:00,48.9,44.6,30.14,WSW,247,1.2,1.2,85,0.00,CLR,,0.00,WeatherDisplay:10.37,2013-03-04 15:21:00,
2013-03-04 07:26:00,49.0,44.7,30.15,NNW,327,1.2,1.2,85,0.00,CLR,,0.00,WeatherDisplay:10.37,2013-03-04 15:26:00,
2013-03-04 07:31:00,49.1,44.8,30.15,WSW,255,1.2,1.2,85,0.00,CLR,,0.00,WeatherDisplay:10.37,2013-03-04 15:31:00,
2013-03-04 07:36:00,49.1,44.8,30.15,WSW,248,0.0,0.0,85,0.00,CLR,,0.00,WeatherDisplay:10.37,2013-03-04 15:36:00,
2013-03-04 07:41:00,49.2,44.9,30.15,WSW,248,0.0,0.0,85,0.00,CLR,,0.00,WeatherDisplay:10.37,2013-03-04 15:41:00,
2013-03-04 07:46:00,49.3,45.0,30.15,West,264,0.0,0.0,85,0.00,CLR,,0.00,WeatherDisplay:10.37,2013-03-04 15:46:00,
2013-03-04 07:51:00,49.4,45.1,30.15,SSW,208,1.2,1.2,85,0.00,CLR,,0.00,WeatherDisplay:10.37,2013-03-04 15:51:00,
2013-03-04 07:56:00,49.5,44.9,30.16,WSW,242,1.2,1.2,84,0.00,CLR,,0.00,WeatherDisplay:10.37,2013-03-04 15:56:00,
2013-03-04 08:01:00,49.6,45.0,30.16,West,270,1.0,1.0,84,0.00,CLR,,0.00,WeatherDisplay:10.37,2013-03-04 16:01:00,
2013-03-04 08:06:00,49.7,45.1,30.16,WNW,295,2.3,2.3,84,0.00,CLR,,0.00,WeatherDisplay:10.37,2013-03-04 16:06:00,
2013-03-04 08:11:00,49.9,44.9,30.16,WNW,283,0.0,0.0,83,0.00,CLR,,0.00,WeatherDisplay:10.37,2013-03-04 16:11:00,
2013-03-04 08:16:00,50.1,45.1,30.16,WSW,249,0.0,0.0,83,0.00,CLR,,0.00,WeatherDisplay:10.37,2013-03-04 16:16:00,
2013-03-04 08:21:00,50.3,45.3,30.17,WNW,298,3.0,3.0,83,0.00,CLR,,0.00,WeatherDisplay:10.37,2013-03-04 16:21:00,
2013-03-04 08:26:00,50.4,45.1,30.17,WSW,237,2.3,0.0,82,0.00,CLR,,0.00,WeatherDisplay:10.37,2013-03-04 16:26:00,
2013-03-04 08:31:00,50.7,45.4,30.17,WSW,256,2.3,2.3,82,0.00,CLR,,0.00,WeatherDisplay:10.37,2013-03-04 16:31:00,
2013-03-04 08:36:00,50.8,45.2,30.17,WSW,248,3.5,3.5,81,0.00,CLR,,0.00,WeatherDisplay:10.37,2013-03-04 16:36:00,
2013-03-04 08:41:00,51.0,45.0,30.17,WSW,250,3.5,3.5,80,0.00,CLR,,0.00,WeatherDisplay:10.37,2013-03-04 16:41:00,
2013-03-04 08:46:00,51.2,45.2,30.17,NW,311,3.5,3.5,80,0.00,CLR,,0.00,WeatherDisplay:10.37,2013-03-04 16:46:00,
2013-03-04 08:51:00,51.5,45.2,30.17,WSW,253,2.3,2.3,79,0.00,CLR,,0.00,WeatherDisplay:10.37,2013-03-04 16:51:00,
2013-03-04 08:56:00,51.7,45.4,30.17,WNW,285,3.0,3.0,79,0.00,CLR,,0.00,WeatherDisplay:10.37,2013-03-04 16:56:00,
2013-03-04 09:01:00,51.8,45.5,30.17,NE,54,1.2,1.2,79,0.00,CLR,,0.00,WeatherDisplay:10.37,2013-03-04 17:01:00,
2013-03-04 09:06:00,52.2,45.5,30.16,NE,40,0.0,0.0,78,0.00,CLR,,0.00,WeatherDisplay:10.37,2013-03-04 17:06:00,
2013-03-04 09:11:00,52.5,45.8,30.16,WSW,242,1.2,1.2,78,0.00,CLR,,0.00,WeatherDisplay:10.37,2013-03-04 17:11:00,
2013-03-04 09:16:00,52.8,45.8,30.16,West,271,2.3,0.0,77,0.00,CLR,,0.00,WeatherDisplay:10.37,2013-03-04 17:16:00,
2013-03-04 09:21:00,53.0,45.6,30.16,WNW,293,2.3,2.3,76,0.00,CLR,,0.00,WeatherDisplay:10.37,2013-03-04 17:21:00,
2013-03-04 09:26:00,53.1,45.7,30.16,SW,217,0.0,0.0,76,0.00,CLR,,0.00,WeatherDisplay:10.37,2013-03-04 17:26:00,
2013-03-04 09:31:00,53.5,46.1,30.17,WSW,253,1.2,1.2,76,0.00,CLR,,0.00,WeatherDisplay:10.37,2013-03-04 17:31:00,
2013-03-04 09:36:00,53.7,46.0,30.17,East,97,1.2,1.2,75,0.00,CLR,,0.00,WeatherDisplay:10.37,2013-03-04 17:36:00,
2013-03-04 09:41:00,53.5,45.8,30.17,NNE,20,2.3,2.3,75,0.00,CLR,,0.00,WeatherDisplay:10.37,2013-03-04 17:41:00,
2013-03-04 09:46:00,53.4,45.7,30.17,NNE,25,1.2,1.2,75,0.00,CLR,,0.00,WeatherDisplay:10.37,2013-03-04 17:46:00,
2013-03-04 09:51:00,53.6,45.5,30.17,NE,54,2.3,2.3,74,0.00,CLR,,0.00,WeatherDisplay:10.37,2013-03-04 17:51:00,
2013-03-04 09:56:00,53.6,45.5,30.17,West,260,1.2,1.2,74,0.00,CLR,,0.00,WeatherDisplay:10.37,2013-03-04 17:56:00,
2013-03-04 10:01:00,53.9,45.8,30.17,West,281,1.2,1.2,74,0.00,CLR,,0.00,WeatherDisplay:10.37,2013-03-04 18:01:00,
2013-03-04 10:06:00,54.4,46.3,30.17,ENE,77,3.5,3.5,74,0.00,CLR,,0.00,WeatherDisplay:10.37,2013-03-04 18:06:00,
2013-03-04 10:11:00,54.8,46.7,30.17,SW,225,2.3,2.3,74,0.00,CLR,,0.00,WeatherDisplay:10.37,2013-03-04 18:11:00,
2013-03-04 10:16:00,55.1,46.6,30.16,NNE,32,1.2,1.2,73,0.00,CLR,,0.00,WeatherDisplay:10.37,2013-03-04 18:16:00,
2013-03-04 10:21:00,55.2,46.3,30.16,North,349,2.3,0.0,72,0.00,CLR,,0.00,WeatherDisplay:10.37,2013-03-04 18:21:00,
2013-03-04 10:26:00,55.7,46.8,30.16,WNW,288,3.0,3.0,72,0.00,CLR,,0.00,WeatherDisplay:10.37,2013-03-04 18:26:00,
2013-03-04 10:29:00,55.7,46.8,30.16,North,9,3.5,3.5,72,0.00,CLR,,0.00,WeatherDisplay:10.37,2013-03-04 18:29:00,
2013-03-04 10:31:00,55.6,46.3,30.16,NE,55,3.5,3.5,71,0.00,CLR,,0.00,WeatherDisplay:10.37,2013-03-04 18:31:00,
2013-03-04 10:34:00,55.4,46.5,30.16,NE,38,3.5,3.5,72,0.00,CLR,,0.00,WeatherDisplay:10.37,2013-03-04 18:34:00,
2013-03-04 10:39:00,54.8,46.3,30.16,WNW,293,3.5,3.5,73,0.00,CLR,,0.00,WeatherDisplay:10.37,2013-03-04 18:39:00,
2013-03-04 10:44:00,54.9,46.8,30.16,NE,49,2.3,2.3,74,0.00,CLR,,0.00,WeatherDisplay:10.37,2013-03-04 18:44:00,
2013-03-04 10:49:00,54.9,46.0,30.16,North,6,5.8,5.8,72,0.00,CLR,,0.00,WeatherDisplay:10.37,2013-03-04 18:49:00,
2013-03-04 10:54:00,55.0,46.9,30.16,WSW,256,3.5,3.5,74,0.00,CLR,,0.00,WeatherDisplay:10.37,2013-03-04 18:54:00,
2013-03-04 10:59:00,55.2,46.7,30.16,NE,37,4.0,4.0,73,0.00,CLR,,0.00,WeatherDisplay:10.37,2013-03-04 18:59:00,
2013-03-04 11:04:00,54.6,46.5,30.16,NE,47,2.3,2.3,74,0.00,CLR,,0.00,WeatherDisplay:10.37,2013-03-04 19:04:00,
2013-03-04 11:09:00,54.6,46.5,30.16,NE,55,3.5,3.5,74,0.00,CLR,,0.00,WeatherDisplay:10.37,2013-03-04 19:09:00,
2013-03-04 11:14:00,55.2,46.7,30.16,NNE,29,3.5,3.5,73,0.00,CLR,,0.00,WeatherDisplay:10.37,2013-03-04 19:14:00,
2013-03-04 11:19:00,55.9,47.4,30.16,WSW,240,2.3,2.3,73,0.00,CLR,,0.00,WeatherDisplay:10.37,2013-03-04 19:19:00,
2013-03-04 11:24:00,57.0,47.3,30.16,NNE,20,5.0,5.0,70,0.00,CLR,,0.00,WeatherDisplay:10.37,2013-03-04 19:24:00,
2013-03-04 11:29:00,56.6,46.9,30.15,ENE,60,4.6,4.6,70,0.00,CLR,,0.00,WeatherDisplay:10.37,2013-03-04 19:29:00,
2013-03-04 11:34:00,56.3,47.0,30.15,NNE,30,3.5,3.5,71,0.00,CLR,,0.00,WeatherDisplay:10.37,2013-03-04 19:34:00,
2013-03-04 11:39:00,56.1,47.2,30.15,NNE,25,3.5,3.5,72,0.00,CLR,,0.00,WeatherDisplay:10.37,2013-03-04 19:39:00,
2013-03-04 11:44:00,56.6,48.0,30.15,ENE,72,4.6,4.6,73,0.00,CLR,,0.00,WeatherDisplay:10.37,2013-03-04 19:44:00,
2013-03-04 11:49:00,56.5,47.2,30.15,ENE,58,6.9,6.9,71,0.00,CLR,,0.00,WeatherDisplay:10.37,2013-03-04 19:49:00,
2013-03-04 11:54:00,56.2,47.3,30.15,NNE,29,6.9,6.9,72,0.00,CLR,,0.00,WeatherDisplay:10.37,2013-03-04 19:54:00,
2013-03-04 11:59:00,56.6,48.0,30.15,NE,44,3.5,3.5,73,0.00,CLR,,0.00,WeatherDisplay:10.37,2013-03-04 19:59:00,
2013-03-04 12:05:00,56.8,47.9,30.15,NNE,25,3.5,3.5,72,0.00,CLR,,0.00,WeatherDisplay:10.37,2013-03-04 20:05:00,
2013-03-04 12:10:00,57.3,48.0,30.15,WNW,298,5.8,5.8,71,0.00,CLR,,0.00,WeatherDisplay:10.37,2013-03-04 20:10:00,
2013-03-04 12:15:00,57.0,47.3,30.14,NNW,334,6.9,6.9,70,0.00,CLR,,0.00,WeatherDisplay:10.37,2013-03-04 20:15:00,
2013-03-04 12:20:00,57.1,48.2,30.14,NNE,31,4.0,4.0,72,0.00,CLR,,0.00,WeatherDisplay:10.37,2013-03-04 20:20:00,
2013-03-04 12:25:00,56.7,47.8,30.13,ESE,103,3.5,3.5,72,0.00,CLR,,0.00,WeatherDisplay:10.37,2013-03-04 20:25:00,
2013-03-04 12:30:00,56.9,48.0,30.13,North,4,4.6,4.6,72,0.00,CLR,,0.00,WeatherDisplay:10.37,2013-03-04 20:30:00,
2013-03-04 12:35:00,57.7,48.4,30.13,NE,49,3.5,3.5,71,0.00,CLR,,0.00,WeatherDisplay:10.37,2013-03-04 20:35:00,
2013-03-04 12:40:00,57.3,47.6,30.13,NE,40,3.5,3.5,70,0.00,CLR,,0.00,WeatherDisplay:10.37,2013-03-04 20:40:00,
2013-03-04 12:45:00,57.3,48.3,30.12,NE,36,5.0,5.0,72,0.00,CLR,,0.00,WeatherDisplay:10.37,2013-03-04 20:45:00,
2013-03-04 12:50:00,57.7,48.4,30.11,NE,56,6.9,6.9,71,0.00,CLR,,0.00,WeatherDisplay:10.37,2013-03-04 20:50:00,
2013-03-04 12:55:00,57.6,47.9,30.12,NE,46,6.9,6.9,70,0.00,CLR,,0.00,WeatherDisplay:10.37,2013-03-04 20:55:00,
2013-03-04 13:00:00,57.6,48.3,30.11,NE,44,3.5,3.5,71,0.00,CLR,,0.00,WeatherDisplay:10.37,2013-03-04 21:00:00,
2013-03-04 13:05:00,57.6,48.3,30.11,NNE,20,4.6,4.6,71,0.00,CLR,,0.00,WeatherDisplay:10.37,2013-03-04 21:05:00,
2013-03-04 13:10:00,57.8,48.1,30.11,NE,40,7.0,7.0,70,0.00,CLR,,0.00,WeatherDisplay:10.37,2013-03-04 21:10:00,
2013-03-04 13:15:00,57.4,48.4,30.11,NE,36,2.3,2.3,72,0.00,CLR,,0.00,WeatherDisplay:10.37,2013-03-04 21:15:00,
2013-03-04 13:20:00,57.5,47.8,30.10,East,79,3.5,3.5,70,0.00,CLR,,0.00,WeatherDisplay:10.37,2013-03-04 21:20:00,
2013-03-04 13:25:00,57.0,47.7,30.10,North,355,4.6,4.6,71,0.00,CLR,,0.00,WeatherDisplay:10.37,2013-03-04 21:25:00,
2013-03-04 13:30:00,57.6,48.6,30.10,NE,37,6.0,6.0,72,0.00,CLR,,0.00,WeatherDisplay:10.37,2013-03-04 21:30:00,
2013-03-04 13:35:00,57.9,48.6,30.10,ENE,66,3.5,3.5,71,0.00,CLR,,0.00,WeatherDisplay:10.37,2013-03-04 21:35:00,
2013-03-04 13:40:00,58.5,49.1,30.10,WNW,300,2.3,2.3,71,0.00,CLR,,0.00,WeatherDisplay:10.37,2013-03-04 21:40:00,
2013-03-04 13:45:00,59.4,48.8,30.10,WSW,238,4.0,4.0,68,0.00,CLR,,0.00,WeatherDisplay:10.37,2013-03-04 21:45:00,
2013-03-04 13:50:00,59.6,48.6,30.09,NE,56,3.5,3.5,67,0.00,CLR,,0.00,WeatherDisplay:10.37,2013-03-04 21:50:00,
2013-03-04 13:55:00,59.5,48.9,30.09,NE,56,2.3,2.3,68,0.00,CLR,,0.00,WeatherDisplay:10.37,2013-03-04 21:55:00,
2013-03-04 14:00:00,59.3,47.9,30.09,NE,41,5.8,5.8,66,0.00,CLR,,0.00,WeatherDisplay:10.37,2013-03-04 22:00:00,
2013-03-04 14:05:00,58.4,48.3,30.09,NE,52,2.3,2.3,69,0.00,CLR,,0.00,WeatherDisplay:10.37,2013-03-04 22:05:00,
2013-03-04 14:10:00,58.5,48.4,30.08,NE,44,5.0,5.0,69,0.00,CLR,,0.00,WeatherDisplay:10.37,2013-03-04 22:10:00,
2013-03-04 14:15:00,59.0,48.4,30.08,NNE,33,3.5,3.5,68,0.00,CLR,,0.00,WeatherDisplay:10.37,2013-03-04 22:15:00,
2013-03-04 14:20:00,59.0,48.4,30.08,SW,215,2.3,2.3,68,0.00,CLR,,0.00,WeatherDisplay:10.37,2013-03-04 22:20:00,
2013-03-04 14:25:00,59.1,48.5,30.08,East,86,0.0,0.0,68,0.00,CLR,,0.00,WeatherDisplay:10.37,2013-03-04 22:25:00,
2013-03-04 14:30:00,59.2,48.6,30.08,NNE,16,5.8,5.8,68,0.00,CLR,,0.00,WeatherDisplay:10.37,2013-03-04 22:30:00,
2013-03-04 14:35:00,59.0,48.4,30.07,NNE,18,3.5,3.5,68,0.00,CLR,,0.00,WeatherDisplay:10.37,2013-03-04 22:35:00,
2013-03-04 14:40:00,58.7,48.2,30.07,East,88,3.0,3.0,68,0.00,CLR,,0.00,WeatherDisplay:10.37,2013-03-04 22:40:00,
2013-03-04 14:45:00,58.6,48.5,30.07,WNW,288,3.5,3.5,69,0.00,CLR,,0.00,WeatherDisplay:10.37,2013-03-04 22:45:00,
2013-03-04 14:50:00,59.1,48.9,30.07,East,101,2.3,2.3,69,0.00,CLR,,0.00,WeatherDisplay:10.37,2013-03-04 22:50:00,
2013-03-04 14:55:00,59.7,49.1,30.06,NW,319,1.2,1.2,68,0.00,CLR,,0.00,WeatherDisplay:10.37,2013-03-04 22:55:00,
2013-03-04 15:00:00,60.4,49.4,30.06,ESE,103,1.2,1.2,67,0.00,CLR,,0.00,WeatherDisplay:10.37,2013-03-04 23:00:00,
2013-03-04 15:05:00,60.6,48.4,30.06,North,355,3.5,3.5,64,0.00,CLR,,0.00,WeatherDisplay:10.37,2013-03-04 23:05:00,
2013-03-04 15:10:00,60.6,49.2,30.06,NW,325,2.3,2.3,66,0.00,CLR,,0.00,WeatherDisplay:10.37,2013-03-04 23:10:00,
2013-03-04 15:15:00,60.7,49.3,30.07,ENE,61,1.2,1.2,66,0.00,CLR,,0.00,WeatherDisplay:10.37,2013-03-04 23:15:00,
2013-03-04 15:20:00,61.2,48.9,30.07,NW,319,2.3,2.3,64,0.00,CLR,,0.00,WeatherDisplay:10.37,2013-03-04 23:20:00,
2013-03-04 15:25:00,61.2,48.9,30.07,NNW,340,6.9,6.9,64,0.00,CLR,,0.00,WeatherDisplay:10.37,2013-03-04 23:25:00,
2013-03-04 15:30:00,61.0,48.7,30.07,WSW,250,2.3,2.3,64,0.00,CLR,,0.00,WeatherDisplay:10.37,2013-03-04 23:30:00,
2013-03-04 15:35:00,60.3,48.1,30.07,WNW,283,4.0,4.0,64,0.00,CLR,,0.00,WeatherDisplay:10.37,2013-03-04 23:35:00,
2013-03-04 15:40:00,59.8,48.0,30.07,WSW,237,3.5,3.5,65,0.00,CLR,,0.00,WeatherDisplay:10.37,2013-03-04 23:40:00,
2013-03-04 15:45:00,59.3,47.1,30.07,NE,44,5.8,5.8,64,0.00,CLR,,0.00,WeatherDisplay:10.37,2013-03-04 23:45:00,
2013-03-04 15:50:00,58.8,47.1,30.07,NNE,29,4.6,4.6,65,0.00,CLR,,0.00,WeatherDisplay:10.37,2013-03-04 23:50:00,
2013-03-04 15:55:00,58.6,46.9,30.07,WNW,300,3.5,3.5,65,0.00,CLR,,0.00,WeatherDisplay:10.37,2013-03-04 23:55:00,
2013-03-04 16:00:00,58.1,45.1,30.07,NE,55,3.5,3.5,62,0.00,CLR,,0.00,WeatherDisplay:10.37,2013-03-05 00:00:00,
2013-03-04 16:05:00,57.8,45.7,30.07,ESE,104,1.2,1.2,64,0.00,CLR,,0.00,WeatherDisplay:10.37,2013-03-05 00:05:00,
2013-03-04 16:10:00,58.1,46.0,30.07,NW,308,4.6,4.6,64,0.00,CLR,,0.00,WeatherDisplay:10.37,2013-03-05 00:10:00,
2013-03-04 16:15:00,58.0,46.3,30.07,WNW,289,5.8,5.8,65,0.00,CLR,,0.00,WeatherDisplay:10.37,2013-03-05 00:15:00,
2013-03-04 16:20:00,58.2,46.9,30.07,NE,56,2.3,2.3,66,0.00,CLR,,0.00,WeatherDisplay:10.37,2013-03-05 00:20:00,
2013-03-04 16:28:00,59.0,46.8,30.07,WNW,290,5.8,5.8,64,0.00,CLR,,0.00,WeatherDisplay:10.37,2013-03-05 00:28:00,
2013-03-04 16:33:00,59.2,46.6,30.07,WNW,287,2.3,2.3,63,0.00,CLR,,0.00,WeatherDisplay:10.37,2013-03-05 00:33:00,
2013-03-04 16:38:00,59.2,45.8,30.07,NW,321,3.5,3.5,61,0.00,CLR,,0.00,WeatherDisplay:10.37,2013-03-05 00:38:00,
2013-03-04 16:43:00,58.7,45.3,30.07,WNW,303,5.8,5.8,61,0.00,CLR,,0.00,WeatherDisplay:10.37,2013-03-05 00:43:00,
2013-03-04 16:48:00,58.2,44.8,30.07,NNE,14,2.3,2.3,61,0.00,CLR,,0.00,WeatherDisplay:10.37,2013-03-05 00:48:00,
2013-03-04 16:53:00,58.1,45.1,30.07,West,266,4.6,4.6,62,0.00,CLR,,0.00,WeatherDisplay:10.37,2013-03-05 00:53:00,
2013-03-04 16:58:00,57.9,44.5,30.07,WNW,295,2.3,2.3,61,0.00,CLR,,0.00,WeatherDisplay:10.37,2013-03-05 00:58:00,
2013-03-04 17:03:00,57.4,43.6,30.07,NNE,29,5.8,5.8,60,0.00,CLR,,0.00,WeatherDisplay:10.37,2013-03-05 01:03:00,
2013-03-04 17:08:00,56.7,43.4,30.08,WNW,284,3.5,3.5,61,0.00,CLR,,0.00,WeatherDisplay:10.37,2013-03-05 01:08:00,
2013-03-04 17:13:00,56.7,43.8,30.08,NE,39,1.2,1.2,62,0.00,CLR,,0.00,WeatherDisplay:10.37,2013-03-05 01:13:00,
2013-03-04 17:18:00,56.3,44.7,30.08,NE,49,2.3,2.3,65,0.00,CLR,,0.00,WeatherDisplay:10.37,2013-03-05 01:18:00,
2013-03-04 17:23:00,56.1,44.5,30.08,NW,316,1.2,1.2,65,0.00,CLR,,0.00,WeatherDisplay:10.37,2013-03-05 01:23:00,
2013-03-04 17:28:00,55.9,44.7,30.08,WNW,288,2.3,2.3,66,0.00,CLR,,0.00,WeatherDisplay:10.37,2013-03-05 01:28:00,
2013-03-04 17:33:00,55.7,44.9,30.07,NE,41,1.2,1.2,67,0.00,CLR,,0.00,WeatherDisplay:10.37,2013-03-05 01:33:00,
2013-03-04 17:38:00,55.0,45.0,30.07,NNE,23,3.5,3.5,69,0.00,CLR,,0.00,WeatherDisplay:10.37,2013-03-05 01:38:00,
2013-03-04 17:43:00,54.4,45.2,30.07,ESE,106,1.0,1.0,71,0.00,CLR,,0.00,WeatherDisplay:10.37,2013-03-05 01:43:00,
2013-03-04 17:48:00,53.9,45.1,30.07,NNE,20,1.2,1.2,72,0.00,CLR,,0.00,WeatherDisplay:10.37,2013-03-05 01:48:00,
2013-03-04 17:53:00,53.5,44.7,30.08,NE,37,3.5,3.5,72,0.00,CLR,,0.00,WeatherDisplay:10.37,2013-03-05 01:53:00,
2013-03-04 17:58:00,53.0,44.9,30.08,ENE,76,3.5,3.5,74,0.00,CLR,,0.00,WeatherDisplay:10.37,2013-03-05 01:58:00,
2013-03-04 18:03:00,52.7,44.6,30.08,WNW,298,2.0,2.0,74,0.00,CLR,,0.00,WeatherDisplay:10.37,2013-03-05 02:03:00,
2013-03-04 18:08:00,52.5,44.8,30.08,NE,49,0.0,0.0,75,0.00,CLR,,0.00,WeatherDisplay:10.37,2013-03-05 02:08:00,
2013-03-04 18:13:00,52.2,44.9,30.08,ENE,73,0.0,0.0,76,0.00,CLR,,0.00,WeatherDisplay:10.37,2013-03-05 02:13:00,
2013-03-04 18:18:00,52.0,44.7,30.08,NNE,31,2.3,2.3,76,0.00,CLR,,0.00,WeatherDisplay:10.37,2013-03-05 02:18:00,
2013-03-04 18:23:00,51.8,44.8,30.08,ENE,62,2.3,2.3,77,0.00,CLR,,0.00,WeatherDisplay:10.37,2013-03-05 02:23:00,
2013-03-04 18:28:00,51.5,44.5,30.08,ENE,62,0.0,0.0,77,0.00,CLR,,0.00,WeatherDisplay:10.37,2013-03-05 02:28:00,
2013-03-04 18:33:00,51.3,44.3,30.08,ENE,62,0.0,0.0,77,0.00,CLR,,0.00,WeatherDisplay:10.37,2013-03-05 02:33:00,
2013-03-04 18:38:00,51.0,44.0,30.08,ENE,62,0.0,0.0,77,0.00,,,0.00,WeatherDisplay:10.37,2013-03-05 02:38:00,
2013-03-04 18:43:00,50.8,43.8,30.08,ENE,62,0.0,0.0,77,0.00,,,0.00,WeatherDisplay:10.37,2013-03-05 02:43:00,
2013-03-04 18:48:00,50.5,43.6,30.08,ENE,75,0.0,0.0,77,0.00,,,0.00,WeatherDisplay:10.37,2013-03-05 02:48:00,
2013-03-04 18:53:00,50.4,43.5,30.08,ENE,75,0.0,0.0,77,0.00,,,0.00,WeatherDisplay:10.37,2013-03-05 02:53:00,
2013-03-04 18:58:00,50.3,43.4,30.08,ENE,75,0.0,0.0,77,0.00,,,0.00,WeatherDisplay:10.37,2013-03-05 02:58:00,
2013-03-04 19:03:00,50.0,43.1,30.08,ENE,70,0.0,0.0,77,0.00,,,0.00,WeatherDisplay:10.37,2013-03-05 03:03:00,
2013-03-04 19:08:00,49.8,43.2,30.08,ENE,70,0.0,0.0,78,0.00,,,0.00,WeatherDisplay:10.37,2013-03-05 03:08:00,
2013-03-04 19:13:00,49.6,43.0,30.08,ENE,70,0.0,0.0,78,0.00,,,0.00,WeatherDisplay:10.37,2013-03-05 03:13:00,
2013-03-04 19:18:00,49.3,42.7,30.08,ENE,70,0.0,0.0,78,0.00,,,0.00,WeatherDisplay:10.37,2013-03-05 03:18:00,
2013-03-04 19:23:00,49.3,43.1,30.07,ENE,69,0.0,0.0,79,0.00,,,0.00,WeatherDisplay:10.37,2013-03-05 03:23:00,
2013-03-04 19:28:00,49.1,43.2,30.08,ENE,69,0.0,0.0,80,0.00,,,0.00,WeatherDisplay:10.37,2013-03-05 03:28:00,
2013-03-04 19:33:00,48.9,42.7,30.08,ENE,69,0.0,0.0,79,0.00,,,0.00,WeatherDisplay:10.37,2013-03-05 03:33:00,
2013-03-04 19:38:00,48.6,42.4,30.08,ENE,70,0.0,0.0,79,0.00,,,0.00,WeatherDisplay:10.37,2013-03-05 03:38:00,
2013-03-04 19:43:00,48.3,42.4,30.08,ENE,69,0.0,0.0,80,0.00,,,0.00,WeatherDisplay:10.37,2013-03-05 03:43:00,
2013-03-04 19:48:00,48.2,43.0,30.08,ENE,69,0.0,0.0,82,0.00,,,0.00,WeatherDisplay:10.37,2013-03-05 03:48:00,
2013-03-04 19:53:00,48.0,42.4,30.08,ENE,69,0.0,0.0,81,0.00,,,0.00,WeatherDisplay:10.37,2013-03-05 03:53:00,
2013-03-04 19:58:00,47.7,42.2,30.08,ENE,69,0.0,0.0,81,0.00,,,0.00,WeatherDisplay:10.37,2013-03-05 03:58:00,
2013-03-04 20:03:00,47.5,42.3,30.07,ENE,69,0.0,0.0,82,0.00,,,0.00,WeatherDisplay:10.37,2013-03-05 04:03:00,
2013-03-04 20:08:00,47.3,42.4,30.07,ENE,69,0.0,0.0,83,0.00,,,0.00,WeatherDisplay:10.37,2013-03-05 04:08:00,
2013-03-04 20:13:00,47.1,41.9,30.08,ENE,70,0.0,0.0,82,0.00,,,0.00,WeatherDisplay:10.37,2013-03-05 04:13:00,
2013-03-04 20:18:00,46.8,41.9,30.08,ENE,69,0.0,0.0,83,0.00,,,0.00,WeatherDisplay:10.37,2013-03-05 04:18:00,
2013-03-04 20:23:00,46.6,41.7,30.08,ENE,70,0.0,0.0,83,0.00,,,0.00,WeatherDisplay:10.37,2013-03-05 04:23:00,
2013-03-04 20:28:00,46.3,41.4,30.08,ENE,70,0.0,0.0,83,0.00,,,0.00,WeatherDisplay:10.37,2013-03-05 04:28:00,
2013-03-04 20:33:00,46.2,41.6,30.08,ENE,69,0.0,0.0,84,0.00,,,0.00,WeatherDisplay:10.37,2013-03-05 04:33:00,
2013-03-04 20:38:00,46.2,41.9,30.08,ENE,69,0.0,0.0,85,0.00,,,0.00,WeatherDisplay:10.37,2013-03-05 04:38:00,
2013-03-04 20:43:00,46.1,41.8,30.08,ENE,70,0.0,0.0,85,0.00,,,0.00,WeatherDisplay:10.37,2013-03-05 04:43:00,
2013-03-04 20:48:00,46.0,42.0,30.08,ENE,69,0.0,0.0,86,0.00,,,0.00,WeatherDisplay:10.37,2013-03-05 04:48:00,
2013-03-04 20:53:00,45.9,41.6,30.08,ENE,70,0.0,0.0,85,0.00,,,0.00,WeatherDisplay:10.37,2013-03-05 04:53:00,
2013-03-04 20:58:00,45.8,41.9,30.09,ENE,69,0.0,0.0,86,0.00,,,0.00,WeatherDisplay:10.37,2013-03-05 04:58:00,
2013-03-04 21:00:00,45.8,41.8,30.09,ENE,70,0.0,0.0,86,0.00,,,0.00,WeatherDisplay:10.37,2013-03-05 05:00:00,
2013-03-04 21:05:00,45.7,41.8,30.09,ENE,69,0.0,0.0,86,0.00,,,0.00,WeatherDisplay:10.37,2013-03-05 05:05:00,
2013-03-04 21:10:00,45.7,41.8,30.09,ENE,69,0.0,0.0,86,0.00,,,0.00,WeatherDisplay:10.37,2013-03-05 05:10:00,
2013-03-04 21:15:00,45.6,42.0,30.09,ENE,70,0.0,0.0,87,0.00,,,0.00,WeatherDisplay:10.37,2013-03-05 05:15:00,
2013-03-04 21:20:00,45.5,41.9,30.09,ENE,70,0.0,0.0,87,0.00,,,0.00,WeatherDisplay:10.37,2013-03-05 05:20:00,
2013-03-04 21:25:00,45.3,41.7,30.09,ENE,69,0.0,0.0,87,0.00,,,0.00,WeatherDisplay:10.37,2013-03-05 05:25:00,
2013-03-04 21:30:00,45.3,42.0,30.09,ENE,69,0.0,0.0,88,0.00,,,0.00,WeatherDisplay:10.37,2013-03-05 05:30:00,
2013-03-04 21:35:00,45.2,41.6,30.09,ENE,69,0.0,0.0,87,0.00,,,0.00,WeatherDisplay:10.37,2013-03-05 05:35:00,
2013-03-04 21:40:00,45.0,41.4,30.09,ENE,69,0.0,0.0,87,0.00,,,0.00,WeatherDisplay:10.37,2013-03-05 05:40:00,
2013-03-04 21:45:00,44.8,41.5,30.09,ENE,69,0.0,0.0,88,0.00,,,0.00,WeatherDisplay:10.37,2013-03-05 05:45:00,
2013-03-04 21:50:00,44.6,41.3,30.09,ENE,70,0.0,0.0,88,0.00,,,0.00,WeatherDisplay:10.37,2013-03-05 05:50:00,
2013-03-04 21:55:00,44.4,41.1,30.09,ENE,70,0.0,0.0,88,0.00,,,0.00,WeatherDisplay:10.37,2013-03-05 05:55:00,
2013-03-04 22:00:00,44.4,41.1,30.09,ENE,70,0.0,0.0,88,0.00,,,0.00,WeatherDisplay:10.37,2013-03-05 06:00:00,
2013-03-04 22:05:00,44.3,41.0,30.09,ENE,69,0.0,0.0,88,0.00,,,0.00,WeatherDisplay:10.37,2013-03-05 06:05:00,
2013-03-04 22:10:00,44.1,40.8,30.09,ENE,70,0.0,0.0,88,0.00,,,0.00,WeatherDisplay:10.37,2013-03-05 06:10:00,
2013-03-04 22:15:00,44.1,41.1,30.09,ENE,70,0.0,0.0,89,0.00,,,0.00,WeatherDisplay:10.37,2013-03-05 06:15:00,
2013-03-04 22:20:00,44.0,41.0,30.09,ENE,70,0.0,0.0,89,0.00,,,0.00,WeatherDisplay:10.37,2013-03-05 06:20:00,
2013-03-04 22:25:00,43.8,40.8,30.09,ENE,69,0.0,0.0,89,0.00,,,0.00,WeatherDisplay:10.37,2013-03-05 06:25:00,
2013-03-04 22:30:00,43.6,40.6,30.09,ENE,70,0.0,0.0,89,0.00,,,0.00,WeatherDisplay:10.37,2013-03-05 06:30:00,
2013-03-04 22:35:00,43.5,40.5,30.09,ENE,69,0.0,0.0,89,0.00,,,0.00,WeatherDisplay:10.37,2013-03-05 06:35:00,
2013-03-04 22:40:00,43.3,40.3,30.09,ENE,69,0.0,0.0,89,0.00,,,0.00,WeatherDisplay:10.37,2013-03-05 06:40:00,
2013-03-04 22:45:00,43.1,40.1,30.09,ENE,69,0.0,0.0,89,0.00,,,0.00,WeatherDisplay:10.37,2013-03-05 06:45:00,
2013-03-04 22:50:00,42.9,39.9,30.09,ENE,69,0.0,0.0,89,0.00,,,0.00,WeatherDisplay:10.37,2013-03-05 06:50:00,
2013-03-04 22:55:00,42.9,39.9,30.09,ENE,70,0.0,0.0,89,0.00,,,0.00,WeatherDisplay:10.37,2013-03-05 06:55:00,
2013-03-04 23:00:00,43.0,40.3,30.09,ENE,70,0.0,0.0,90,0.00,,,0.00,WeatherDisplay:10.37,2013-03-05 07:00:00,
2013-03-04 23:05:00,43.1,40.4,30.09,ENE,69,0.0,0.0,90,0.00,,,0.00,WeatherDisplay:10.37,2013-03-05 07:05:00,
2013-03-04 23:10:00,43.0,40.3,30.09,ENE,70,0.0,0.0,90,0.00,,,0.00,WeatherDisplay:10.37,2013-03-05 07:10:00,
2013-03-04 23:15:00,43.0,40.3,30.09,ENE,70,0.0,0.0,90,0.00,,,0.00,WeatherDisplay:10.37,2013-03-05 07:15:00,
2013-03-04 23:20:00,43.0,40.6,30.09,SE,133,0.0,0.0,91,0.00,,,0.00,WeatherDisplay:10.37,2013-03-05 07:20:00,
2013-03-04 23:25:00,42.9,40.5,30.09,SE,132,0.0,0.0,91,0.00,,,0.00,WeatherDisplay:10.37,2013-03-05 07:25:00,
2013-03-04 23:30:00,42.9,40.5,30.09,SE,132,0.0,0.0,91,0.00,,,0.00,WeatherDisplay:10.37,2013-03-05 07:30:00,
2013-03-04 23:35:00,42.7,40.3,30.09,SE,132,0.0,0.0,91,0.00,,,0.00,WeatherDisplay:10.37,2013-03-05 07:35:00,
2013-03-04 23:40:00,42.6,40.2,30.09,SE,132,0.0,0.0,91,0.00,,,0.00,WeatherDisplay:10.37,2013-03-05 07:40:00,
2013-03-04 23:45:00,42.5,40.1,30.09,SE,132,0.0,0.0,91,0.00,,,0.00,WeatherDisplay:10.37,2013-03-05 07:45:00,
2013-03-04 23:50:00,42.5,40.1,30.09,SE,133,0.0,0.0,91,0.00,,,0.00,WeatherDisplay:10.37,2013-03-05 07:50:00,
2013-03-04 23:55:00,42.3,39.9,30.09,SE,133,0.0,0.0,91,0.00,,,0.00,WeatherDisplay:10.37,2013-03-05 07:55:00,